SLI416 MMMX-MMTM

Flight info

Callsign SLI416
Flight time 0h 44m
Altitude 27000
Route IKLAN2A IKLAN UT141 TAM
Aircraft E190/M-SDE3GILORVW/S

Departure

Time 2026-04-22 22:38
Airport Mexico City Benito Juárez International Airport (MMMX)

Arrival

Time 2026-04-22 23:22
Airport General Francisco Javier Mina International Airport (MMTM)
Time Latitude Longitude Altitude Speed Heading
2026-04-22 22:26 19.42470 -99.08347 7330 ft 0 kts 22°
2026-04-22 22:29 19.42459 -99.08351 7330 ft 2 kts 22°
2026-04-22 22:29 19.42448 -99.08356 7330 ft 0 kts 22°
2026-04-22 22:30 19.42437 -99.08360 7330 ft 1 kts
2026-04-22 22:30 19.42423 -99.08358 7330 ft 2 kts 338°
2026-04-22 22:30 19.42410 -99.08349 7330 ft 2 kts 311°
2026-04-22 22:30 19.42405 -99.08340 7330 ft 1 kts 294°
2026-04-22 22:31 19.42402 -99.08334 7330 ft 0 kts 292°
2026-04-22 22:32 19.42403 -99.08335 7330 ft 0 kts 292°
2026-04-22 22:33 19.42405 -99.08340 7330 ft 1 kts 292°
2026-04-22 22:33 19.42408 -99.08347 7330 ft 0 kts 293°
2026-04-22 22:33 19.42412 -99.08360 7330 ft 2 kts 292°
2026-04-22 22:33 19.42423 -99.08385 7330 ft 4 kts 292°
2026-04-22 22:34 19.42439 -99.08427 7330 ft 6 kts 293°
2026-04-22 22:34 19.42458 -99.08474 7330 ft 6 kts 292°
2026-04-22 22:34 19.42477 -99.08521 7330 ft 6 kts 292°
2026-04-22 22:34 19.42500 -99.08561 7330 ft 6 kts 321°
2026-04-22 22:35 19.42538 -99.08581 7330 ft 5 kts 336°
2026-04-22 22:35 19.42575 -99.08597 7331 ft 5 kts 339°
2026-04-22 22:35 19.42580 -99.08599 7330 ft 0 kts 338°
2026-04-22 22:35 19.42583 -99.08601 7330 ft 0 kts 338°
2026-04-22 22:36 19.42588 -99.08602 7330 ft 0 kts 338°
2026-04-22 22:36 19.42594 -99.08605 7330 ft 1 kts 338°
2026-04-22 22:36 19.42603 -99.08609 7330 ft 2 kts 338°
2026-04-22 22:36 19.42621 -99.08617 7330 ft 3 kts 337°
2026-04-22 22:37 19.42649 -99.08629 7330 ft 4 kts 337°
2026-04-22 22:37 19.42681 -99.08621 7330 ft 5 kts 52°
2026-04-22 22:37 19.42713 -99.08567 7330 ft 14 kts 59°
2026-04-22 22:37 19.42868 -99.08290 7330 ft 76 kts 59°
2026-04-22 22:38 19.43236 -99.07631 7329 ft 129 kts 59°
2026-04-22 22:38 19.43793 -99.06644 7327 ft 179 kts 60°
2026-04-22 22:38 19.44474 -99.05424 7503 ft 202 kts 59°
2026-04-22 22:38 19.45178 -99.04148 8210 ft 198 kts 59°
2026-04-22 22:39 19.46009 -99.02799 8110 ft 245 kts 55°
2026-04-22 22:39 19.46992 -99.01255 8595 ft 255 kts 55°
2026-04-22 22:39 19.47965 -98.99760 9516 ft 246 kts 53°
2026-04-22 22:39 19.48966 -98.98269 10121 ft 246 kts 53°
2026-04-22 22:40 19.49977 -98.96774 10589 ft 252 kts 52°
2026-04-22 22:40 19.51041 -98.95215 10788 ft 272 kts 52°
2026-04-22 22:40 19.52220 -98.93510 10787 ft 302 kts 52°
2026-04-22 22:40 19.53507 -98.91667 11202 ft 313 kts 51°
2026-04-22 22:41 19.54792 -98.89837 11865 ft 315 kts 51°
2026-04-22 22:41 19.56120 -98.87955 12408 ft 322 kts 51°
2026-04-22 22:41 19.57485 -98.86034 12940 ft 328 kts 51°
2026-04-22 22:41 19.58862 -98.84107 13530 ft 331 kts 50°
2026-04-22 22:42 19.60238 -98.82188 14483 ft 321 kts 51°
2026-04-22 22:42 19.61566 -98.80339 15318 ft 314 kts 50°
2026-04-22 22:42 19.62880 -98.78516 15928 ft 314 kts 50°
2026-04-22 22:42 19.64230 -98.76653 16441 ft 319 kts 50°
2026-04-22 22:43 19.65590 -98.74789 16901 ft 325 kts 50°
2026-04-22 22:43 19.66982 -98.72892 17359 ft 329 kts 50°
2026-04-22 22:43 19.68411 -98.70955 17863 ft 333 kts 49°
2026-04-22 22:43 19.69848 -98.69017 18378 ft 336 kts 49°
2026-04-22 22:44 19.71300 -98.67069 18697 ft 346 kts 49°
2026-04-22 22:44 19.72911 -98.65085 18824 ft 358 kts 37°
2026-04-22 22:44 19.75125 -98.63864 19095 ft 361 kts 10°
2026-04-22 22:44 19.77606 -98.63824 19538 ft 359 kts 345°
2026-04-22 22:45 19.79894 -98.64810 20109 ft 356 kts 333°
2026-04-22 22:45 19.82135 -98.65984 20654 ft 357 kts 332°
2026-04-22 22:45 19.84361 -98.67151 21165 ft 359 kts 332°
2026-04-22 22:45 19.85172 -98.67572 21333 ft 360 kts 334°
2026-04-22 22:46 19.86631 -98.68136 21592 ft 364 kts 345°
2026-04-22 22:46 19.89177 -98.68482 22022 ft 370 kts 355°
2026-04-22 22:46 19.91760 -98.68494 22445 ft 374 kts 359°
2026-04-22 22:47 19.94372 -98.68385 22874 ft 377 kts 360°
2026-04-22 22:47 19.96952 -98.68719 23255 ft 374 kts 337°
2026-04-22 22:47 19.99227 -98.70063 23696 ft 372 kts 323°
2026-04-22 22:47 20.01352 -98.71659 24174 ft 373 kts 323°
2026-04-22 22:48 20.03459 -98.73270 24564 ft 376 kts 323°
2026-04-22 22:48 20.05606 -98.74923 24988 ft 378 kts 322°
2026-04-22 22:48 20.07731 -98.76562 25441 ft 379 kts 323°
2026-04-22 22:48 20.09880 -98.78222 25835 ft 381 kts 323°
2026-04-22 22:49 20.12038 -98.79890 26097 ft 378 kts 323°
2026-04-22 22:49 20.14158 -98.81530 26123 ft 378 kts 323°
2026-04-22 22:49 20.16312 -98.83211 26208 ft 387 kts 322°
2026-04-22 22:49 20.18497 -98.84923 26523 ft 390 kts 322°
2026-04-22 22:50 20.20663 -98.86620 26933 ft 390 kts 322°
2026-04-22 22:50 20.22869 -98.88285 27086 ft 391 kts 331°
2026-04-22 22:50 20.25490 -98.89168 27374 ft 398 kts 349°
2026-04-22 22:50 20.28302 -98.89371 27357 ft 413 kts 359°
2026-04-22 22:51 20.31208 -98.89263 27352 ft 423 kts 358°
2026-04-22 22:51 20.34173 -98.89198 27336 ft 427 kts 358°
2026-04-22 22:51 20.37166 -98.89150 27326 ft 426 kts 358°
2026-04-22 22:51 20.40115 -98.88992 27300 ft 427 kts
2026-04-22 22:52 20.43042 -98.88294 27317 ft 433 kts 15°
2026-04-22 22:52 20.45858 -98.87069 27296 ft 437 kts 23°
2026-04-22 22:52 20.48428 -98.85371 27304 ft 442 kts 33°
2026-04-22 22:52 20.50884 -98.83374 27292 ft 444 kts 33°
2026-04-22 22:53 20.53371 -98.81422 27292 ft 442 kts 32°
2026-04-22 22:53 20.55836 -98.79515 27276 ft 440 kts 31°
2026-04-22 22:53 20.58343 -98.77585 27292 ft 439 kts 32°
2026-04-22 22:53 20.60841 -98.75661 27291 ft 441 kts 31°
2026-04-22 22:54 20.63343 -98.73734 27262 ft 442 kts 31°
2026-04-22 22:54 20.65830 -98.71819 27252 ft 442 kts 31°
2026-04-22 22:54 20.68316 -98.69903 27257 ft 440 kts 31°
2026-04-22 22:54 20.70781 -98.68003 27223 ft 441 kts 31°
2026-04-22 22:55 20.73297 -98.66063 27231 ft 443 kts 31°
2026-04-22 22:55 20.75780 -98.64147 27218 ft 442 kts 31°
2026-04-22 22:55 20.80774 -98.60293 27190 ft 443 kts 31°
2026-04-22 22:56 20.83256 -98.58374 27167 ft 442 kts 31°
2026-04-22 22:56 20.85778 -98.56426 27143 ft 442 kts 31°
2026-04-22 22:56 20.88265 -98.54503 27124 ft 442 kts 31°
2026-04-22 22:56 20.90771 -98.52565 27116 ft 442 kts 31°
2026-04-22 22:57 20.93255 -98.50643 27081 ft 443 kts 31°
2026-04-22 22:57 20.95698 -98.48750 27048 ft 430 kts 31°
2026-04-22 22:57 20.98126 -98.46870 27040 ft 426 kts 31°
2026-04-22 22:57 21.00527 -98.45012 27031 ft 430 kts 31°
2026-04-22 22:58 21.02962 -98.43124 26865 ft 431 kts 31°
2026-04-22 22:58 21.05387 -98.41245 26382 ft 431 kts 31°
2026-04-22 22:58 21.07818 -98.39359 25892 ft 427 kts 31°
2026-04-22 22:58 21.10187 -98.37520 25416 ft 421 kts 31°
2026-04-22 22:59 21.12574 -98.35667 24941 ft 417 kts 31°
2026-04-22 22:59 21.14910 -98.33852 24463 ft 414 kts 31°
2026-04-22 22:59 21.17248 -98.32037 23996 ft 412 kts 32°
2026-04-22 22:59 21.19541 -98.30254 23522 ft 410 kts 31°
2026-04-22 23:00 21.21864 -98.28449 23064 ft 409 kts 31°
2026-04-22 23:00 21.24165 -98.26646 22605 ft 408 kts 34°
2026-04-22 23:00 21.26235 -98.24597 22170 ft 409 kts 40°
2026-04-22 23:00 21.28283 -98.22460 21715 ft 406 kts 40°
2026-04-22 23:01 21.30296 -98.20361 21267 ft 402 kts 40°
2026-04-22 23:01 21.32282 -98.18291 20828 ft 399 kts 40°
2026-04-22 23:01 21.34271 -98.16215 20381 ft 396 kts 40°
2026-04-22 23:01 21.36227 -98.14174 19966 ft 392 kts 40°
2026-04-22 23:02 21.38185 -98.12130 19532 ft 389 kts 40°
2026-04-22 23:02 21.40109 -98.10121 19085 ft 387 kts 41°
2026-04-22 23:02 21.42042 -98.08102 18665 ft 383 kts 41°
2026-04-22 23:02 21.43935 -98.06124 18236 ft 380 kts 41°
2026-04-22 23:03 21.45854 -98.04171 17808 ft 375 kts 34°
2026-04-22 23:03 21.48139 -98.02959 17430 ft 364 kts 12°
2026-04-22 23:03 21.50592 -98.02377 17000 ft 361 kts
2026-04-22 23:03 21.53064 -98.01852 16584 ft 358 kts
2026-04-22 23:04 21.55491 -98.01350 16197 ft 354 kts
2026-04-22 23:04 21.57914 -98.00854 15798 ft 352 kts
2026-04-22 23:04 21.58730 -98.00687 15662 ft 351 kts
2026-04-22 23:05 21.59405 -98.00550 15558 ft 351 kts
2026-04-22 23:05 21.61815 -98.00058 15163 ft 348 kts
2026-04-22 23:05 21.64181 -97.99576 14776 ft 347 kts
2026-04-22 23:05 21.66569 -97.99088 14403 ft 345 kts
2026-04-22 23:06 21.68932 -97.98606 14019 ft 342 kts
2026-04-22 23:06 21.71256 -97.98132 13626 ft 341 kts
2026-04-22 23:06 21.73570 -97.97659 13240 ft 339 kts
2026-04-22 23:06 21.75910 -97.97181 12865 ft 337 kts
2026-04-22 23:07 21.77000 -97.96959 12682 ft 335 kts
2026-04-22 23:07 21.77570 -97.96842 12591 ft 334 kts
2026-04-22 23:08 21.79841 -97.96378 12226 ft 328 kts
2026-04-22 23:08 21.82083 -97.95920 11842 ft 321 kts
2026-04-22 23:08 21.84240 -97.95479 11506 ft 312 kts
2026-04-22 23:08 21.86362 -97.95045 11160 ft 304 kts
2026-04-22 23:09 21.88409 -97.94626 10828 ft 297 kts
2026-04-22 23:09 21.90436 -97.94212 10498 ft 290 kts
2026-04-22 23:09 21.92393 -97.93811 10186 ft 288 kts
2026-04-22 23:09 21.94381 -97.93404 9860 ft 289 kts
2026-04-22 23:10 21.96373 -97.92996 9552 ft 289 kts 10°
2026-04-22 23:10 21.98333 -97.92595 9242 ft 289 kts 10°
2026-04-22 23:10 21.99845 -97.92285 9000 ft 289 kts 10°
2026-04-22 23:12 22.00952 -97.92058 8825 ft 287 kts 10°
2026-04-22 23:12 22.02914 -97.91656 8507 ft 287 kts 10°
2026-04-22 23:13 22.04867 -97.91255 8187 ft 285 kts 10°
2026-04-22 23:13 22.06824 -97.90854 7877 ft 285 kts 11°
2026-04-22 23:13 22.08779 -97.90453 7559 ft 283 kts 11°
2026-04-22 23:13 22.10704 -97.90057 7249 ft 282 kts 11°
2026-04-22 23:14 22.12649 -97.89658 6931 ft 280 kts 11°
2026-04-22 23:14 22.14569 -97.89264 6617 ft 279 kts 11°
2026-04-22 23:14 22.16467 -97.88874 6312 ft 278 kts 11°
2026-04-22 23:14 22.18355 -97.88487 6002 ft 277 kts 11°
2026-04-22 23:15 22.20262 -97.88095 5694 ft 276 kts 12°
2026-04-22 23:15 22.22156 -97.87705 5385 ft 276 kts 12°
2026-04-22 23:15 22.24076 -97.87310 5076 ft 276 kts 12°
2026-04-22 23:15 22.25973 -97.86920 4767 ft 275 kts 13°
2026-04-22 23:16 22.27886 -97.86526 4455 ft 274 kts 12°
2026-04-22 23:16 22.29808 -97.86293 4148 ft 276 kts 353°
2026-04-22 23:16 22.31563 -97.87108 3940 ft 280 kts 322°
2026-04-22 23:16 22.33203 -97.88228 3626 ft 275 kts 342°
2026-04-22 23:17 22.34974 -97.88843 3250 ft 262 kts 345°
2026-04-22 23:17 22.36683 -97.89413 2834 ft 254 kts 345°
2026-04-22 23:17 22.38344 -97.89967 2399 ft 248 kts 345°
2026-04-22 23:17 22.39975 -97.90523 2061 ft 237 kts 345°
2026-04-22 23:18 22.41526 -97.90897 1804 ft 221 kts 349°
2026-04-22 23:18 22.42713 -97.91778 1709 ft 207 kts 298°
2026-04-22 23:18 22.42931 -97.93250 1745 ft 201 kts 249°
2026-04-22 23:18 22.42126 -97.94366 1739 ft 176 kts 198°
2026-04-22 23:19 22.41030 -97.94370 1727 ft 156 kts 152°
2026-04-22 23:19 22.39996 -97.93971 1720 ft 157 kts 158°
2026-04-22 23:19 22.38915 -97.93665 1706 ft 158 kts 162°
2026-04-22 23:19 22.37842 -97.93398 1701 ft 158 kts 162°
2026-04-22 23:20 22.36882 -97.92978 1461 ft 144 kts 144°
2026-04-22 23:20 22.36039 -97.92390 1462 ft 143 kts 142°
2026-04-22 23:20 22.35260 -97.91709 1548 ft 145 kts 135°
2026-04-22 23:20 22.34533 -97.90933 1317 ft 147 kts 131°
2026-04-22 23:21 22.33775 -97.90182 988 ft 146 kts 139°
2026-04-22 23:21 22.33018 -97.89553 782 ft 133 kts 141°
2026-04-22 23:21 22.32267 -97.88971 501 ft 132 kts 142°
2026-04-22 23:21 22.31514 -97.88414 389 ft 131 kts 141°
2026-04-22 23:22 22.30783 -97.87845 238 ft 130 kts 144°
2026-04-22 23:22 22.30033 -97.87283 96 ft 129 kts 143°
2026-04-22 23:22 22.29428 -97.86829 86 ft 74 kts 143°
2026-04-22 23:22 22.29170 -97.86635 84 ft 14 kts 146°
2026-04-22 23:23 22.29133 -97.86635 84 ft 5 kts 221°
2026-04-22 23:23 22.29112 -97.86665 84 ft 4 kts 234°
2026-04-22 23:23 22.29094 -97.86691 85 ft 3 kts 234°
2026-04-22 23:23 22.29082 -97.86710 85 ft 2 kts 236°
2026-04-22 23:24 22.29072 -97.86726 86 ft 2 kts 235°
2026-04-22 23:24 22.29059 -97.86746 87 ft 4 kts 234°
2026-04-22 23:24 22.29040 -97.86776 88 ft 5 kts 235°
2026-04-22 23:24 22.29011 -97.86822 89 ft 8 kts 236°
2026-04-22 23:25 22.28978 -97.86873 90 ft 8 kts 232°
2026-04-22 23:25 22.28950 -97.86900 90 ft 0 kts 218°